Regional Weather Roundup
Issued by NWS

Home | Current Version | Previous Version | Text Only | Print | Product List | Glossary Off
Versions: 1 2 3 4 5 6 7 8 9 10 11 12 13 14 15 16 17 18 19 20 21 22 23 24 25 26 27 28 29 30 31 32 33 34 35 36 37 38 39 40 41 42 43 44 45 46 47 48 49 50

000
ASUS44 KMEG 191300
RWRTN
TENNESSEE HOURLY STATE WEATHER ROUNDUP
NATIONAL WEATHER SERVICE MEMPHIS TN
800 AM CDT FRI SEP 19 2014

TNZ002-004-019-021-049-052-054-088>092-191400-
WEST TENNESSEE

CITY           SKY/WX    TMP DP  RH WIND       PRES   REMARKS
MEMPHIS INTL   CLOUDY    67  65  93 E6        30.03R FOG
NWS MEMPHIS      N/A     65 N/A N/A MISG        N/A
JACKSON        SUNNY     63  60  90 CALM      30.04R
DYERSBURG      SUNNY     61  50  67 NE6       30.06R
PARIS          SUNNY     59  55  88 NE7       30.06S
$$

TNZ008-025-027-028-033-062-065-066-191400-
NORTH MIDDLE TENNESSEE

CITY           SKY/WX    TMP DP  RH WIND       PRES   REMARKS
NASHVILLE      MOSUNNY   64  59  83 NE5       30.07R
CLARKSVILLE    SUNNY     60  55  83 E5        30.07R
COOKEVILLE     SUNNY     61  57  88 CALM      30.08S
CROSSVILLE     SUNNY     62  55  77 CALM      30.13R
$$

TNZ061-075-076-078-094-096-097-191400-
SOUTH MIDDLE TENNESSEE

CITY           SKY/WX    TMP DP  RH WIND       PRES   REMARKS
WINCHESTER     SUNNY     66  59  77 CALM      30.07S
$$

TNZ017-018-042-046-047-191400-
NORTHEAST TENNESSEE

CITY           SKY/WX    TMP DP  RH WIND       PRES   REMARKS
TRI CITIES     SUNNY     60  55  83 CALM      30.14S
ELIZABETHTON   SUNNY     63  57  82 E3        30.14S
$$

TNZ012-013-036-069-073-074-191400-
CENTRAL EAST TENNESSEE

CITY           SKY/WX    TMP DP  RH WIND       PRES   REMARKS
KNOXVILLE      MOSUNNY   62  56  80 NE10      30.10R
OAK RIDGE      SUNNY     63  57  81 NE3       30.13R
GATLINBURG     SUNNY     57  55  94 CALM      30.11S
$$

TNZ083-085-099-191400-
SOUTHEAST TENNESSEE

CITY           SKY/WX    TMP DP  RH WIND       PRES   REMARKS
CHATTANOOGA    MOSUNNY   67  58  72 N7        30.10R
$$

SKY/WX REPORTED AS FAIR MEANS FEW OR NO CLOUDS BELOW
12 THOUSAND FEET.



USA.gov is the U.S. government's official web portal to all federal, state and local government web resources and services.